STARLINK-33604, 63070

Orbit data source: Space-Track

STARLINK-33604, 63070 is a payload satellite owned by SpaceX/Seattle (US) in LEO that was launched on Fri, 21 Feb 2025 UTC via an FALCON 9 launch vehicle from the Air Force Eastern Test Range (AFETR). Payload-class satellites include a variety of spacecraft equipped with specific instruments for various scientific and technological missions. These include communications satellites like Starlink; space stations such as the ISS; scientific satellites like the Hubble; Earth observation satellites from companies like Planet Labs, Umbra, and HawkEye 360; GPS; miniature CubeSats for education and research; and military/defense satellites.

Loading next visibility...
Identifier
63070, 2025-035U
Orbit
LEO
Country
Flag of USUS
Related business
Manufacturer
SpaceX/Seattle
Mission
Operational Commercial Communications
Bus & Motor
STARLINK V2MO, Unknown motor
Mass
575 kg wet, ~530 kg dry
Launch date (UTC)
2025-02-21 (1 year ago)
Launch vehicle
FALCON 9
Launch site
Air Force Eastern Test Range (AFETR)
Object type
Payload
Rocket body
Debris
Shape & HBR
Box + 2 Pan, 17.7 m
Radar Cross Section
36.964 m², Large (>1 m²)

Expand to show TLE details & history
Last TLE update: 12 hours ago

TLE from 12 hours ago
0 STARLINK-33604
1 63070U 25035U   26171.33650541  .00019996  00000-0  73387-3 0  9990
2 63070  42.9999 287.7885 0000979 275.9789  84.0951 15.27594056 75415
Epoch: 2026-06-20T08:04Z
TLE epoch observation values (Epoch: 2026-06-20T08:04:34.067Z)
Latitude
-0.00002°
Longitude
-101.90605°
Altitude
482.713 km
Speed
7.626 km/s
True Right ascension
19h 11m 09s
True Declination
0° 00' 00"
Sunlit
Object was in full shadow at epoch
Visualization orbit readout
Latitude
Unknown
Longitude
Unknown
Altitude
Unknown
Speed
Unknown
Apparent Right ascension
Unknown
Apparent Declination
Unknown
Sunlit
N/A
Visualization observer readout
Local Sidereal Time
07:13:05
Azimuth
Unknown
Elevation
Unknown
Doppler factor
Unknown
Orbital elements
Apogee altitude
485.624 km
Perigee altitude
484.28 km
Semi-major axis
6,863.089 km
Eccentricity
0.0001
Inclination
42.9999°
RAAN
287.7885°
Arg. of periapsis
275.9789°
True anomaly
84.10626°
Mean anomaly
84.0951°
Eccentric anomaly
84.10068°
Mean motion
3.81737 °/min
Orbital period
94.31 mins
BSTAR
0.00073387
Loading maneuver chart data...
Computing Atmospheric mass density...
Loading historical data...
Loading historical data...
Loading historical data...
Loading historical data...
Loading historical data...
Loading historical data...
Loading historical data...

Documentation

Showing up to 5 results
|